• Processing (Info)

  • MPEC 2009-B08 : 2009 AG16

    The following Minor Planet Electronic Circular may be linked-to from your own Web pages, but must not otherwise be redistributed electronically.

    A form allowing access to any MPEC is at the bottom of this page.


    Read MPEC 2009-B07 Read MPEC 2009-B09


    M.P.E.C. 2009-B08                                Issued 2009 Jan. 17, 16:15 UT
    
         The Minor Planet Electronic Circulars contain information on unusual
             minor planets and routine data on comets.  They are published
       on behalf of Commission 20 of the International Astronomical Union by the
              Minor Planet Center, Smithsonian Astrophysical Observatory,
                              Cambridge, MA 02138, U.S.A.
    
                 Prepared using the Tamkin Foundation Computer Network
    
                                  MPC@CFA.HARVARD.EDU
              URL http://www.cfa.harvard.edu/iau/mpc.html  ISSN 1523-6714
    
                                       2009 AG16
    
    Observations:
         K09A16G* C2009 01 15.32681 09 38 00.75 +36 02 39.3          19.1   EB008704
         K09A16G  C2009 01 15.35176 09 37 51.70 +36 04 44.1          19.8   EB008704
         K09A16G  C2009 01 15.36426 09 37 47.22 +36 05 48.0          19.8   EB008704
         K09A16G  C2009 01 15.37676 09 37 42.81 +36 06 50.3          20.0   EB008704
         K09A16G  C2009 01 16.26916 09 32 37.36 +37 18 36.0          19.9 R EB008854
         K09A16G  C2009 01 16.27395 09 32 35.74 +37 18 57.1          19.9 R EB008854
         K09A16G  C2009 01 16.27876 09 32 33.93 +37 19 21.0          20.0 R EB008854
         K09A16G  C2009 01 16.32731709 32 15.91 +37 23 04.9          19.6 V EB008H55
         K09A16G  C2009 01 16.32975609 32 15.03 +37 23 16.2          19.9 V EB008H55
         K09A16G  C2009 01 16.33218109 32 14.17 +37 23 27.5          19.9 V EB008H55
         K09A16G  C2009 01 17.21147 09 27 16.02 +38 28 43.3          19.4 C EB008493
         K09A16G  C2009 01 17.21267 09 27 15.61 +38 28 48.4          19.7 C EB008493
         K09A16G  C2009 01 17.21386 09 27 15.20 +38 28 53.7          19.5 C EB008493
         K09A16G  C2009 01 17.52486 09 25 31.38 +38 50 52.5          19.9 V EB008291
         K09A16G  C2009 01 17.52943 09 25 29.83 +38 51 11.3          20.0 V EB008291
         K09A16G  C2009 01 17.53450 09 25 28.09 +38 51 32.3          19.9 V EB008291
    
    Observer details:
    291 LPL/Spacewatch II.  Observer J. V. Scotti.  1.8-m f/2.7 reflector + CCD.
    493 Calar Alto.  Observer F. Hormuth.  1.23-m reflector + CCD.
    704 Lincoln Laboratory ETS, New Mexico.  Observers M. Bezpalko, D. Torres,
        R. Kracke, G. Spitz, J. Kistler.  Measurers J. Stuart, S. Scruggs.  1.0-m
        f/2.15 reflector + CCD.
    854 Sabino Canyon Observatory, Tucson.  Observer J. E. McGaha.  0.36-m f/10.0
        Schmidt-Cassegrain + CCD.
    H55 Astronomical Research Observatory, Charleston.  Observer R. Holmes.
        Measurer H. Devore.  0.61-m f/4.0 astrograph + CCD.
    
    Orbital elements:
    2009 AG16                                                Earth MOID = 0.0559 AU
    Epoch 2008 Nov. 30.0 TT = JDT 2454800.5                 MPC
    M  14.16121              (2000.0)            P               Q
    n   0.53498939     Peri.  257.62246     +0.88851184     -0.16382996
    a   1.5028164      Node   110.51647     +0.27287851     +0.93961985
    e   0.6098452      Incl.   27.23474     -0.36889568     +0.30045678
    P   1.84           H   21.1           G   0.15           U   9
    Residuals in seconds of arc
    090115 704  0.0   0.4+    090116 854  0.4-  0.5+    090117 493  0.1+  0.1-
    090115 704  0.6-  0.7-    090116 H55  0.2-  0.2-    090117 291  0.0   0.1-
    090115 704  0.2-  0.3+    090116 H55  0.4-  0.2-    090117 291  0.1+  0.0
    090115 704  1.1+  0.0     090116 H55  0.5-  0.1-    090117 291  0.1-  0.3+
    090116 854  0.1+  0.8+    090117 493  0.1+  0.4-
    090116 854  0.9+  0.7-    090117 493  0.1+  0.4-
    
    Ephemeris:
    2009 AG16                a,e,i = 1.50, 0.61, 27                  q = 0.5863
    Date    TT    R. A. (2000) Decl.     Delta      r     Elong.  Phase     V
    2009 01 09    10 16.14   +24 43.4    0.218    1.159   139.9    33.1    19.5
    2009 01 11    10 03.82   +28 51.8    0.231    1.179   144.7    28.8    19.5
    2009 01 13    09 51.71   +32 28.4    0.245    1.199   148.5    25.4    19.6
    2009 01 15    09 39.90   +35 34.8    0.261    1.220   151.5    22.7    19.7
    2009 01 17    09 28.48   +38 13.5    0.279    1.240   153.5    20.8    19.8
    2009 01 19    09 17.53   +40 27.2    0.298    1.259   154.6    19.6    20.0
    2009 01 21    09 07.14   +42 19.0    0.318    1.279   154.9    19.1    20.1
    2009 01 23    08 57.36   +43 51.7    0.339    1.298   154.5    19.1    20.3
    2009 01 25    08 48.23   +45 07.9    0.361    1.318   153.6    19.4    20.5
    2009 01 27    08 39.79   +46 10.0    0.384    1.337   152.3    20.0    20.7
    2009 01 29    08 32.06   +47 00.1    0.408    1.355   150.8    20.7    20.8
    2009 01 31    08 25.03   +47 40.1    0.432    1.374   149.2    21.6    21.0
    2009 02 02    08 18.69   +48 11.4    0.457    1.392   147.4    22.4    21.2
    2009 02 04    08 13.02   +48 35.4    0.483    1.411   145.6    23.2    21.4
    2009 02 06    08 07.99   +48 53.4    0.509    1.429   143.8    24.1    21.5
    2009 02 08    08 03.58   +49 06.2    0.536    1.447   142.0    24.8    21.7
    2009 02 10    07 59.74   +49 14.7    0.563    1.464   140.1    25.6    21.9
    2009 02 12    07 56.43   +49 19.5    0.591    1.482   138.3    26.3    22.0
    2009 02 14    07 53.63   +49 21.2    0.619    1.499   136.5    26.9    22.2
    2009 02 16    07 51.29   +49 20.2    0.648    1.516   134.8    27.6    22.3
    2009 02 18    07 49.39   +49 17.1    0.677    1.533   133.0    28.1    22.4
    
    A. U. Tomatic                (C) Copyright 2009 MPC           M.P.E.C. 2009-B08
    

    Read MPEC 2009-B07 Read MPEC 2009-B09


    MPEC number:

    Enter an MPEC number in one of the following forms:

    • 1997-B01 (the full form)
    • J97B01 (the packed version of the full form)
    • B01 (the abbreviated form)